Temp
15 16 16 16 16 15 15 15 15 14 14 14 14 15 14 15 15 14 14 14 14 13 13 13 13 13 13 13 13 13 13 13 13 13 13 14 14 15 15 14 16 15 15
14 15 16 15 15 15 14 14 14 14 14 13 13 13 14 14 13 14 13 13 13 13 13 13 13 13 13 13 13 13 13 13 13 12 12 11 14 14 16 15 15 16 16
13 14 14 14 14 14 14 13 13 13 13 13 13 14 14 14 13 13 13 13 13 13 13 12 12 12 12 12 12 13 13 13 13 13 12 11 11 12 15 15 15 15 16
13 13 12 13 13 13 13 13 13 13 13 13 13 12 12 12 12 12 12 12 12 12 12 12 12 12 12 12 12 12 12 12 12 12 13 13 12 12 11 14 14 15 15
11 11 12 12 12 13 13 13 12 12 12 12 12 12 12 11 11 11 12 12 12 11 11 11 11 11 11 11 11 11 11 11 11 11 12 12 12 12 10 11 11 13 14
11 12 13 13 12 12 12 12 12 12 12 11 11 11 11 11 11 11 11 11 10 10 10 10 10 10 10 10 10 10 10 11 11 11 11 11 11 11 11 9 10 11 12
10 11 11 12 12 12 12 12 12 12 11 11 11 11 10 10 10 10 10 10 10 9 9 9 9 9 9 9 9 10 10 10 10 10 10 11 11 12 11 11 10 9 11
10 10 11 12 12 12 12 12 11 11 11 11 10 10 10 10 10 9 9 9 9 9 9 9 9 8 8 8 9 9 9 9 9 9 9 10 10 11 11 11 10 10 10
10 11 12 12 12 12 12 12 11 11 10 10 10 10 10 9 9 9 9 9 9 9 8 8 8 8 8 8 8 8 8 8 8 9 9 9 9 9 10 11 11 10 10
11 11 12 12 13 13 12 11 11 10 10 10 10 9 9 9 9 9 9 9 8 8 8 8 8 7 7 7 7 7 7 7 7 7 8 8 8 8 8 9 10 10 9
11 9 10 11 12 12 11 11 11 10 10 10 10 9 9 9 9 8 8 8 8 8 8 7 7 7 7 7 6 6 6 6 6 6 7 7 7 7 8 8 8 8 9
8 8 10 10 10 10 11 11 11 11 10 10 10 10 10 10 9 9 9 8 8 8 7 7 7 7 6 6 6 6 6 6 6 6 5 6 6 6 6 7 7 7 8
9 8 9 8 9 10 10 10 10 10 10 10 10 10 10 10 9 9 9 8 8 8 7 7 6 6 6 6 6 5 5 5 5 5 5 5 4 4 4 5 6 6 7
8 8 7 7 8 8 9 9 9 9 8 8 8 8 9 9 9 9 8 8 7 7 7 6 6 6 6 5 5 5 5 5 5 5 4 4 3 3 3 4 4 5 6
7 7 5 6 7 7 7 7 7 7 7 7 7 6 7 7 7 7 7 7 7 7 6 6 6 6 5 5 5 5 5 5 4 4 4 4 3 3 3 3 4 5 5
6 6 5 6 6 6 6 6 6 6 6 6 6 6 6 7 7 7 7 6 6 6 6 6 6 5 5 5 5 5 4 4 4 4 4 4 3 3 2 3 3 4 3
5 4 4 5 6 6 6 6 6 6 6 5 5 5 5 6 6 6 6 6 6 6 6 5 5 5 5 5 5 4 4 4 4 4 4 4 3 3 3 3 2 3 3
4 4 5 5 5 5 6 6 6 6 5 5 5 5 5 5 5 6 6 6 6 5 5 5 5 5 4 4 4 4 4 4 4 4 4 4 4 3 3 3 2 3 3
4 5 6 6 5 5 6 6 5 5 5 5 4 4 4 4 5 5 5 5 5 5 4 4 4 4 4 4 4 3 3 4 4 4 4 4 3 3 3 2 2 3 3
6 5 6 6 5 6 6 5 5 4 4 4 4 4 4 4 4 4 4 5 4 3 3 3 3 3 3 3 3 3 3 3 3 3 4 4 3 3 3 3 3 2 3
6 6 6 5 5 5 5 4 4 3 4 4 4 4 4 4 4 4 5 4 4 3 3 3 3 3 3 3 3 3 3 3 3 3 3 4 4 3 2 2 2 2 3
5 5 4 4 5 5 4 3 3 4 4 4 3 3 3 3 3 3 4 3 3 2 2 2 2 2 2 2 2 2 3 3 3 3 3 3 3 3 2 2 2 2 2
4 4 4 4 4 4 4 3 3 3 3 3 3 3 3 3 2 3 3 2 2 2 2 2 2 2 2 2 2 2 3 3 3 3 3 3 3 2 2 2 2 2 2
4 4 4 3 3 4 4 3 3 3 2 2 2 2 2 2 2 2 2 2 2 2 2 2 2 2 2 2 2 2 2 2 2 3 2 2 1 1 1 1 1 1 1
3 3 3 3 3 3 3 3 2 2 2 2 2 2 2 2 2 2 2 1 1 1 1 1 1 1 1 1 1 1 1 1 1 1 1 1 0 -0 -1 -1 -1 -1 -0
3 3 3 3 2 2 2 2 1 1 1 1 1 1 1 1 1 1 1 1 1 1 1 1 1 1 1 1 1 1 1 1 1 1 0 -0 -1 -1 -1 -1 -1 -1 -1
Height
831 831 833 834 835 836 837 837 838 837 837 836 834 833 832 832 831 830 829 827 826 824 821 820 818 815 814 812 810 807 805 801 799 796 794 790 787 783 783 786 783 782 783
832 833 833 833 835 837 837 837 837 837 837 836 835 835 834 832 832 831 829 827 826 823 821 820 818 816 814 812 810 808 804 801 800 800 797 793 787 784 782 783 784 787 785
832 832 833 833 835 836 837 838 838 839 838 837 836 834 834 833 832 830 829 828 826 824 822 820 818 816 814 812 810 809 806 802 800 799 800 798 796 792 785 785 783 785 785
830 831 832 833 836 838 839 839 838 838 838 837 836 834 833 832 831 830 828 827 825 824 822 820 818 816 814 812 810 808 807 805 802 800 799 799 798 797 791 785 785 786 786
830 833 834 836 837 838 838 838 839 839 839 838 836 835 835 833 832 830 828 827 825 824 822 820 817 815 813 812 810 807 805 804 803 802 799 797 797 797 796 790 784 782 782
831 832 833 835 836 838 839 839 839 839 840 839 837 835 835 833 831 830 828 826 825 824 822 820 817 815 812 809 807 807 805 802 800 799 798 796 795 793 793 791 787 784 778
832 834 835 837 838 838 839 839 839 839 839 838 837 836 835 833 831 829 828 826 824 822 821 819 818 815 812 809 806 803 801 800 799 795 793 791 790 789 788 787 786 783 778
831 833 835 836 837 838 838 838 838 838 837 837 836 835 833 832 830 828 826 824 822 820 818 817 815 814 811 808 805 801 799 796 794 794 792 789 785 785 783 781 780 778 776
832 834 834 835 835 836 836 837 837 837 836 835 834 833 831 830 828 827 825 822 820 818 816 814 811 810 808 806 803 801 798 795 792 788 786 785 783 781 780 777 775 775 771
831 832 832 832 832 832 833 833 834 834 834 834 833 832 830 828 826 823 821 819 817 814 812 810 807 806 804 802 799 798 795 792 789 786 784 781 778 776 774 773 770 768 766
832 833 832 832 830 830 831 831 831 831 831 831 830 829 827 825 823 820 818 815 813 811 809 806 803 801 800 798 795 793 791 788 786 784 780 777 776 772 770 768 767 763 761
834 834 833 831 830 830 831 830 829 829 828 826 824 823 821 819 816 814 812 810 808 806 804 802 798 796 794 792 790 787 785 783 781 779 777 773 771 768 767 764 761 760 758
834 833 832 832 832 832 832 832 831 830 827 824 820 817 814 811 808 806 804 803 801 799 797 796 793 791 788 786 784 782 779 777 775 773 772 769 767 764 762 761 757 754 752
835 833 833 833 833 832 831 829 827 825 823 820 817 812 808 804 801 799 799 798 795 791 789 789 787 784 782 780 777 775 772 770 768 767 765 763 761 760 757 756 754 751 747
835 835 835 834 831 830 829 827 825 823 821 817 812 809 804 799 796 796 794 793 791 786 783 781 779 777 775 773 771 769 766 764 762 760 758 756 755 753 752 751 749 747 744
837 836 834 833 831 829 827 825 823 820 817 813 808 804 799 795 791 788 785 783 780 778 776 775 772 769 767 765 763 762 760 758 756 753 751 750 748 747 746 744 743 742 739
836 835 833 830 828 827 824 821 818 815 812 808 804 798 794 789 785 782 778 775 773 771 769 766 764 761 759 757 756 755 753 751 748 746 745 744 742 741 740 737 736 735 733
834 832 829 827 824 822 819 816 812 809 805 802 797 792 787 782 778 774 771 768 767 764 761 758 756 754 751 749 747 746 745 743 740 739 738 737 735 734 734 732 730 729 727
829 827 825 822 820 818 814 811 807 804 800 795 790 785 781 776 771 768 765 762 759 756 753 750 747 744 741 739 738 738 736 734 731 730 730 729 728 727 728 727 724 722 720
825 822 819 816 814 810 808 804 800 796 792 787 783 778 773 768 763 760 757 755 752 749 746 742 739 737 733 730 729 729 728 725 722 721 720 720 720 720 720 720 718 716 714
818 816 813 809 806 804 801 796 793 789 784 780 775 769 764 760 755 750 748 745 743 740 738 734 730 727 725 722 721 720 720 718 715 713 711 711 712 713 713 713 712 709 708
811 809 805 801 798 795 792 788 785 781 776 771 766 761 756 752 748 743 739 737 734 731 728 724 721 718 716 715 712 711 710 709 708 705 703 703 704 705 705 704 703 703 701
806 803 799 794 790 787 786 780 775 772 767 762 757 752 747 743 738 735 731 728 726 723 719 717 714 710 707 705 704 702 701 700 699 696 695 696 696 697 696 696 695 695 694
800 797 792 788 783 780 776 772 768 763 758 752 747 743 738 734 730 726 723 720 717 714 710 708 705 702 700 697 695 693 692 691 690 689 688 688 688 689 688 688 687 687 687
792 788 785 780 775 771 767 763 759 755 749 744 739 733 729 725 720 717 713 711 708 706 702 699 697 694 691 688 688 687 685 683 681 681 680 679 679 679 679 678 677 678 677
784 780 776 774 768 764 760 756 753 749 743 735 730 726 721 717 713 709 703 701 699 695 692 690 689 685 682 680 678 676 674 672 672 672 670 669 669 669 670 669 669 669 668
Wind_Speed
7 8 7 5 5 6 4 5 3 6 5 5 7 7 8 8 7 7 7 7 8 10 11 11 11 11 11 11 12 15 17 19 19 15 20 23 21 10 12 13 11 17 20
5 8 10 9 10 8 5 3 3 3 5 6 6 5 8 6 6 8 8 10 10 10 9 10 12 12 13 13 11 11 14 17 16 11 15 4 7 20 10 8 8 10 13
8 6 10 10 7 4 3 4 4 5 6 6 4 4 2 4 9 10 11 11 10 10 10 9 10 11 13 14 15 14 12 12 16 12 4 3 3 14 8 13 3 5 8
5 8 10 9 6 6 6 5 5 4 5 6 6 7 6 5 7 9 8 9 9 10 10 11 12 11 12 14 15 16 17 16 15 15 10 11 10 3 5 11 22 19 11
7 6 8 9 6 5 4 3 3 5 5 4 6 6 6 6 6 9 9 11 8 8 11 13 12 13 13 13 15 15 15 15 17 17 16 13 13 12 7 7 10 21 22
7 8 9 7 5 3 2 1 1 3 4 4 5 6 7 7 9 10 12 13 12 12 12 15 14 14 13 13 14 16 17 17 17 18 18 18 12 7 7 3 8 12 22
6 5 6 5 3 1 0 1 2 2 3 4 5 6 6 7 8 10 13 15 15 16 16 16 18 17 16 16 16 15 16 17 19 19 20 20 23 21 20 15 9 7 16
6 6 7 4 2 2 2 2 3 3 4 5 5 5 6 7 7 9 11 12 13 15 16 18 17 17 16 16 16 17 17 16 17 20 20 22 23 23 24 19 12 8 9
6 5 4 4 5 6 7 6 6 6 6 7 7 7 8 9 11 12 12 13 14 16 18 20 19 19 18 17 17 18 19 19 20 20 21 21 22 22 23 26 27 14 9
6 5 7 8 11 12 12 7 6 8 8 8 9 10 12 12 13 14 16 15 16 18 21 22 21 22 20 19 17 18 19 19 20 19 20 23 25 24 23 23 26 28 19
3 4 5 8 10 15 10 8 9 8 9 10 13 16 17 18 18 18 19 19 20 22 23 24 24 24 23 21 20 20 21 20 20 21 20 21 22 24 25 23 22 24 23
5 4 8 13 17 2 7 9 10 11 13 15 18 20 21 22 24 25 24 22 23 24 26 26 26 25 25 24 22 22 21 20 21 22 18 19 22 24 26 26 23 20 21
5 5 11 13 15 16 15 15 15 15 17 21 23 24 26 28 29 29 26 23 24 27 28 28 28 28 26 25 25 25 22 21 21 17 21 25 22 23 24 25 26 23 22
5 3 7 11 16 21 24 25 24 26 29 30 30 34 37 37 35 30 24 25 26 27 28 29 30 28 28 28 27 26 24 21 18 22 23 22 21 20 21 22 23 23 22
7 5 5 10 16 21 23 25 30 31 29 31 29 30 33 19 21 24 26 29 29 28 28 31 31 28 29 29 29 26 24 24 23 25 23 22 22 22 20 21 23 24 22
5 5 6 12 16 19 23 25 27 29 31 32 32 32 32 32 25 25 29 30 29 30 30 31 31 32 31 30 28 25 24 25 26 26 26 25 25 24 18 18 22 21 16
5 6 8 14 18 19 22 25 27 28 27 28 31 31 32 32 27 27 28 32 30 32 32 33 33 33 34 32 30 27 24 25 27 28 27 27 26 24 25 24 20 19 23
6 7 14 18 20 22 24 26 29 31 29 30 31 31 31 32 33 31 27 25 27 31 34 36 36 34 35 35 33 30 26 27 29 29 28 27 29 27 25 26 25 23 22
8 13 17 21 23 26 26 28 31 32 34 32 31 32 32 33 33 34 32 32 34 35 35 34 35 36 37 36 34 30 28 29 31 31 30 27 27 28 25 23 26 25 22
16 20 22 25 27 31 32 33 31 29 29 32 34 36 36 35 34 35 34 34 33 32 32 32 33 34 35 37 35 31 26 27 30 30 29 27 26 27 25 22 23 21 23
25 27 29 29 30 33 34 31 31 28 33 35 36 37 35 35 37 36 37 35 33 31 30 32 34 34 35 38 37 32 28 27 25 26 29 29 26 26 25 23 23 24 25
24 27 26 26 31 33 31 28 26 33 35 35 34 34 34 35 34 33 32 32 31 29 30 29 30 30 31 30 31 29 30 29 26 27 30 27 27 28 27 27 25 23 24
21 24 24 26 30 30 31 29 31 32 34 33 33 34 34 35 33 29 29 27 27 26 25 24 24 27 29 29 31 31 31 30 29 28 29 27 26 28 28 28 26 24 25
21 26 25 23 27 31 32 31 33 34 34 33 34 33 31 31 32 29 27 27 25 25 25 23 23 24 25 27 29 28 28 28 26 25 25 21 21 23 27 28 27 28 29
25 25 25 26 29 32 33 33 32 32 31 34 33 32 31 31 30 29 27 27 29 29 27 27 26 23 24 28 29 29 28 28 29 25 22 24 25 25 24 25 26 28 28
28 27 25 27 31 30 28 28 29 32 33 32 29 28 28 28 27 26 28 30 32 35 35 35 34 33 33 34 35 35 35 34 32 29 23 21 21 20 21 22 22 23 22
Wind_Direction
130 121 121 120 122 107 98 71 32 30 12 9 12 17 13 13 20 22 12 0 351 344 342 337 324 319 336 333 330 327 330 336 350 343 333 312 309 311 304 285 289 308 304
137 149 135 107 108 103 92 80 57 33 7 8 14 5 355 2 25 15 5 352 354 350 348 341 341 336 331 330 336 330 325 327 343 342 333 335 334 353 345 308 282 278 303
164 149 122 113 123 124 103 76 42 34 19 13 3 9 24 22 11 13 9 14 13 7 358 355 348 339 335 333 332 330 326 315 321 333 320 341 329 343 342 350 13 327 321
139 123 127 106 89 76 78 67 61 62 46 34 31 34 36 25 9 5 11 11 23 16 7 355 347 345 343 343 337 330 325 325 312 313 303 287 288 311 324 321 319 318 316
139 114 102 94 94 107 107 93 65 43 32 26 29 27 25 18 8 7 5 9 13 8 352 351 352 350 344 337 330 327 325 319 315 310 305 296 292 285 234 291 309 313 310
122 122 129 133 130 117 102 96 44 39 16 16 28 21 13 8 4 1 358 357 357 354 351 346 343 341 338 334 331 326 323 318 314 308 303 294 280 263 260 266 287 287 303
136 141 136 149 165 186 264 285 287 323 354 359 5 4 359 356 357 353 348 345 345 345 346 342 339 338 333 329 326 321 319 319 316 313 311 303 295 287 280 274 273 264 293
150 158 169 175 212 249 277 302 308 315 313 323 338 341 336 340 340 336 334 333 330 330 330 329 328 328 325 323 320 317 316 313 308 310 312 311 303 298 290 274 274 285 276
141 156 176 205 230 249 242 263 286 297 309 313 315 313 316 320 326 326 325 323 321 320 320 321 320 319 318 319 318 314 313 312 309 306 305 306 306 305 300 291 280 258 280
147 186 212 232 236 238 237 236 265 285 294 296 301 303 307 311 315 316 315 313 313 311 312 313 312 311 310 312 310 307 306 306 303 304 306 303 304 304 302 303 297 282 261
138 31 12 352 316 250 229 234 259 270 279 285 293 299 303 307 308 306 308 310 309 312 309 306 307 304 301 302 301 301 302 302 299 300 302 300 303 305 303 301 298 291 273
74 52 27 29 32 314 249 267 271 269 270 275 282 285 289 291 292 293 295 298 297 305 307 301 298 294 294 296 293 292 294 294 297 300 299 300 302 298 297 301 299 291 291
56 32 32 32 20 14 11 354 341 319 303 293 285 281 279 278 282 283 282 283 288 296 300 299 295 295 293 292 293 292 291 290 287 283 296 300 302 301 299 298 297 297 295
27 34 34 17 9 360 351 342 337 332 327 323 317 307 294 285 279 280 283 290 292 292 295 292 292 293 293 292 289 286 288 287 269 285 294 295 297 301 294 299 296 295 295
345 23 23 0 356 349 342 334 329 326 327 324 324 321 315 298 306 306 307 305 301 295 296 294 292 290 291 290 288 286 286 283 279 288 291 294 299 299 299 286 290 293 290
348 357 346 344 342 338 331 326 322 321 321 317 313 310 304 301 290 287 292 290 293 293 294 293 292 292 291 290 288 284 280 283 282 284 292 295 299 298 296 295 287 292 305
344 329 322 325 323 320 317 312 311 312 311 311 310 306 305 303 297 297 296 291 284 286 288 289 288 287 288 289 288 284 279 278 279 281 283 288 289 290 291 298 294 293 290
311 310 312 315 315 315 312 313 313 310 306 307 304 303 300 297 297 294 283 286 288 289 290 292 291 289 288 289 289 286 281 278 278 276 276 279 285 289 289 289 289 288 288
282 297 303 303 305 304 302 302 302 301 299 296 294 295 297 293 295 292 286 292 294 294 290 288 287 287 288 290 291 286 280 277 277 278 280 273 276 285 287 278 275 281 285
297 289 288 291 294 297 299 299 297 293 290 291 294 293 290 287 287 288 288 293 290 284 284 282 280 279 281 286 288 286 277 269 271 278 278 272 272 281 281 275 276 270 281
287 288 283 281 286 294 294 283 285 283 289 294 294 290 287 288 286 281 282 284 283 283 282 279 278 275 275 279 284 285 279 270 269 267 274 277 274 280 272 272 274 275 282
285 285 280 278 285 287 285 281 280 287 295 294 292 292 293 293 286 280 285 285 278 277 276 275 276 277 276 275 277 280 280 276 269 264 270 271 280 281 274 270 270 269 279
287 293 286 284 287 293 293 284 286 295 294 292 291 290 291 290 282 282 285 280 283 277 273 275 275 276 278 276 275 275 276 276 277 270 269 271 278 280 275 270 269 270 273
297 296 290 286 287 293 291 288 294 295 292 292 294 291 290 286 284 280 280 281 279 277 276 276 273 273 274 275 278 279 280 282 282 273 271 264 269 276 279 276 273 270 270
297 295 292 292 293 298 296 298 298 299 298 299 296 294 292 287 281 276 274 276 277 274 274 276 276 276 277 276 278 278 278 277 277 275 270 273 273 268 266 266 268 268 270
293 295 296 300 301 303 305 307 308 307 301 298 298 296 296 294 289 283 283 280 280 280 279 277 277 278 276 279 282 283 281 279 279 275 266 259 250 253 263 269 266 259 258